TimeEDT,TemperatureF,Dew PointF,Humidity,Sea Level PressureIn,VisibilityMPH,Wind Direction,Wind SpeedMPH,Gust SpeedMPH,PrecipitationIn,Events,Conditions,WindDirDegrees,DateUTC
12:53 AM,24.1,16.0,71,30.18,10.0,ENE,6.9,-,N/A,,Clear,60,2013-03-18 04:53:00
1:53 AM,25.0,17.1,72,30.14,10.0,ENE,8.1,-,N/A,,Clear,70,2013-03-18 05:53:00
2:53 AM,26.1,18.0,71,30.14,10.0,ENE,6.9,-,N/A,,Clear,70,2013-03-18 06:53:00
3:53 AM,28.0,19.0,69,30.09,10.0,East,10.4,-,N/A,,Clear,90,2013-03-18 07:53:00
4:53 AM,28.9,19.9,69,30.04,10.0,East,11.5,-,N/A,,Clear,80,2013-03-18 08:53:00
5:53 AM,30.0,21.0,69,30.00,10.0,East,12.7,20.7,N/A,,Clear,80,2013-03-18 09:53:00
6:53 AM,30.9,21.0,67,29.96,10.0,East,15.0,25.3,N/A,,Clear,80,2013-03-18 10:53:00
7:53 AM,32.0,21.0,64,29.94,10.0,East,17.3,25.3,N/A,,Overcast,80,2013-03-18 11:53:00
8:35 AM,32.0,21.2,64,29.90,10.0,East,17.3,25.3,N/A,,Overcast,80,2013-03-18 12:35:00
8:53 AM,33.1,21.9,64,29.92,10.0,East,19.6,26.5,N/A,,Overcast,80,2013-03-18 12:53:00
9:53 AM,33.1,24.1,70,29.87,3.0,East,15.0,-,0.00,Snow,Light Snow,80,2013-03-18 13:53:00
10:53 AM,33.1,25.0,72,29.84,2.5,East,15.0,25.3,0.00,Snow,Light Snow,90,2013-03-18 14:53:00
11:08 AM,33.8,26.6,75,29.81,4.0,East,16.1,25.3,0.00,Snow,Light Snow,90,2013-03-18 15:08:00
11:53 AM,34.0,26.1,73,29.80,5.0,East,18.4,27.6,0.00,,Haze,90,2013-03-18 15:53:00
12:16 PM,33.8,26.6,75,29.77,3.0,East,18.4,25.3,N/A,,Haze,80,2013-03-18 16:16:00
12:23 PM,33.8,26.6,75,29.77,2.5,East,16.1,24.2,N/A,,Haze,80,2013-03-18 16:23:00
12:50 PM,33.8,28.4,81,29.76,2.5,East,16.1,23.0,N/A,,Haze,80,2013-03-18 16:50:00
12:53 PM,34.0,28.0,79,29.77,2.5,East,16.1,23.0,N/A,,Haze,90,2013-03-18 16:53:00
1:32 PM,33.8,30.2,87,29.73,1.8,East,11.5,20.7,N/A,,Overcast,90,2013-03-18 17:32:00
1:53 PM,34.0,30.0,85,29.73,1.5,East,17.3,20.7,N/A,,Overcast,90,2013-03-18 17:53:00
2:53 PM,35.1,30.9,85,29.68,1.5,East,16.1,-,N/A,,Overcast,100,2013-03-18 18:53:00
3:42 PM,35.6,32.0,87,29.60,2.5,East,12.7,-,0.02,,Overcast,100,2013-03-18 19:42:00
3:53 PM,36.0,32.0,86,29.60,2.0,East,17.3,-,0.02,,Overcast,90,2013-03-18 19:53:00
4:01 PM,35.6,32.0,87,29.59,1.5,East,13.8,-,N/A,,Overcast,100,2013-03-18 20:01:00
4:12 PM,35.6,32.0,87,29.60,2.0,East,13.8,-,N/A,,Overcast,100,2013-03-18 20:12:00
4:22 PM,35.6,32.0,87,29.61,1.5,East,10.4,-,N/A,,Overcast,100,2013-03-18 20:22:00
4:53 PM,36.0,33.1,89,29.61,1.0,East,9.2,-,0.01,,Overcast,90,2013-03-18 20:53:00
5:53 PM,37.0,33.1,86,29.57,1.0,ESE,6.9,-,0.01,,Overcast,110,2013-03-18 21:53:00
6:14 PM,37.4,33.8,87,29.56,1.0,East,4.6,-,0.01,,Overcast,90,2013-03-18 22:14:00
6:53 PM,37.0,33.1,86,29.56,1.0,ESE,6.9,-,0.03,,Overcast,110,2013-03-18 22:53:00
7:10 PM,37.4,33.8,87,29.56,2.5,SSE,3.5,-,N/A,,Overcast,160,2013-03-18 23:10:00
7:35 PM,37.4,33.8,87,29.56,1.8,SW,4.6,-,0.01,,Overcast,230,2013-03-18 23:35:00
7:42 PM,37.4,33.8,87,29.56,2.0,SW,3.5,-,0.01,,Overcast,230,2013-03-18 23:42:00
7:53 PM,37.0,34.0,89,29.57,2.0,SW,5.8,-,0.01,,Overcast,230,2013-03-18 23:53:00
8:53 PM,37.0,33.1,86,29.59,2.0,SW,12.7,-,N/A,,Overcast,230,2013-03-19 00:53:00
9:00 PM,37.4,33.8,87,29.58,10.0,WSW,13.8,-,N/A,,Overcast,240,2013-03-19 01:00:00
9:25 PM,37.4,33.8,87,29.59,10.0,WSW,16.1,23.0,N/A,,Overcast,240,2013-03-19 01:25:00
9:53 PM,37.9,33.1,83,29.61,10.0,WSW,15.0,-,N/A,,Overcast,240,2013-03-19 01:53:00
10:39 PM,37.4,32.0,81,29.61,10.0,WSW,16.1,-,N/A,,Overcast,250,2013-03-19 02:39:00
10:53 PM,37.0,32.0,82,29.63,10.0,WSW,13.8,23.0,N/A,,Overcast,240,2013-03-19 02:53:00
11:53 PM,37.0,30.0,76,29.64,10.0,WSW,20.7,28.8,N/A,,Overcast,240,2013-03-19 03:53:00